North Adams, MA

5:27 PM EST on February 20, 2018 (GMT -0500)
Harriman And West

Weather History for KAQW - December, 2012

Change the Weather History Date:

Sunday, December 23, 2012

  Actual Average Record
Temperature  
Mean Temperature 30 °F -  
Max Temperature 34 °F 33 °F 59 °F (2007)
Min Temperature 25 °F 18 °F 7 °F (2008)
Degree Days  
Heating Degree Days 36    
Moisture  
Dew Point 17 °F    
Average Humidity 60    
Maximum Humidity 82    
Minimum Humidity 46    
Precipitation  
Precipitation 0.00 in - - ()
Sea Level Pressure  
Sea Level Pressure 29.83 in    
Wind  
Wind Speed 9 mph (West)    
Max Wind Speed 14 mph    
Max Gust Speed 24 mph    
Visibility 10 miles    
Events Snow    
Averages and records for this station are not official NWS values.
T = Trace of Precipitation, MM = Missing Value Source: NWS Daily Summary

Daily Weather History Graph

Daily Weather History Graph

Search for Another Location

Airport or City:

Trip Planner

Search our weather history database for the weather conditions in past years. The results will help you decide how hot, cold, wet, or windy it might be!

Date:

Astronomy

Dec. 23, 2012 Rise Set
Actual Time 7:20 AM EST 4:23 PM EST
Civil Twilight 6:48 AM EST 4:55 PM EST
Nautical Twilight 6:12 AM EST 5:31 PM EST
Astronomical Twilight 5:38 AM EST 6:05 PM EST
Moon 1:15 PM EST (12/23) 2:57 AM EST (12/23)
Length of Visible Light 10h 06m
Length of Day
9h 02m
Waxing Gibbous, 81% of the Moon is Illuminated
Dec 23
Waxing Gibbous
Dec 28
Full
Jan 4
Last Quarter
Jan 11
New
Jan 18
First Quarter

Hourly Weather History & Observations

Time (EST) Temp. Windchill Dew Point Humidity Pressure Visibility Wind Dir Wind Speed Gust Speed Precip Events Conditions
12:52 AM 28.9 °F 18.6 °F 15.1 °F 56% 29.74 in 10.0 mi West 12.7 mph 24.2 mph N/A   Overcast
1:52 AM 28.0 °F 17.5 °F 15.1 °F 58% 29.77 in 10.0 mi West 12.7 mph 19.6 mph N/A   Scattered Clouds
2:52 AM 27.0 °F 18.0 °F 14.0 °F 58% 29.79 in 10.0 mi West 9.2 mph 19.6 mph N/A   Scattered Clouds
3:52 AM 26.1 °F 17.6 °F 12.9 °F 58% 29.80 in 10.0 mi West 8.1 mph 24.2 mph N/A   Partly Cloudy
4:52 AM 26.1 °F 14.5 °F 14.0 °F 60% 29.81 in 10.0 mi West 13.8 mph 19.6 mph N/A   Clear
5:52 AM 25.0 °F 14.8 °F 12.9 °F 60% 29.84 in 10.0 mi West 10.4 mph - N/A   Clear
6:52 AM 25.0 °F 15.5 °F 14.0 °F 63% 29.86 in 10.0 mi West 9.2 mph - N/A   Clear
7:52 AM 26.1 °F 17.6 °F 15.1 °F 63% 29.86 in 10.0 mi West 8.1 mph 18.4 mph N/A   Mostly Cloudy
8:52 AM 27.0 °F 20.5 °F 15.1 °F 61% 29.87 in 10.0 mi West 5.8 mph - N/A   Overcast
9:52 AM 28.0 °F 22.8 °F 16.0 °F 61% 29.88 in 10.0 mi West 4.6 mph - N/A   Overcast
10:52 AM 28.9 °F 23.9 °F 17.1 °F 61% 29.86 in 10.0 mi WSW 4.6 mph - 0.00 in   Overcast
11:05 AM 28.4 °F 22.2 °F 17.6 °F 64% 29.83 in 10.0 mi SW 5.8 mph - N/A   Overcast
11:52 AM 30.9 °F 26.2 °F 18.0 °F 59% 29.84 in 10.0 mi NNW 4.6 mph - N/A   Overcast
12:52 PM 33.1 °F 27.7 °F 19.9 °F 59% 29.81 in 10.0 mi West 5.8 mph - N/A   Overcast
2:52 PM 33.1 °F 28.7 °F 19.9 °F 59% 29.80 in 10.0 mi NNW 4.6 mph - 0.00 in   Overcast
3:52 PM 32.0 °F - 21.0 °F 64% 29.81 in 10.0 mi Calm Calm - N/A   Overcast
4:52 PM 30.0 °F 25.2 °F 25.0 °F 82% 29.82 in 6.0 mi ESE 4.6 mph - 0.00 in Snow Light Snow
5:52 PM 30.9 °F - 25.0 °F 79% 29.83 in 10.0 mi Calm Calm - N/A   Overcast
6:52 PM 30.0 °F - 25.0 °F 82% 29.84 in 10.0 mi Calm Calm - N/A   Overcast
7:52 PM 34.0 °F 26.0 °F 17.1 °F 50% 29.83 in 10.0 mi West 10.4 mph 21.9 mph N/A   Overcast
8:52 PM 34.0 °F 27.2 °F 15.1 °F 46% 29.84 in 10.0 mi West 8.1 mph - N/A   Overcast
9:52 PM 34.0 °F 25.0 °F 15.1 °F 46% 29.86 in 10.0 mi West 12.7 mph 18.4 mph N/A   Overcast
10:52 PM 33.1 °F 25.5 °F 16.0 °F 50% 29.87 in 10.0 mi West 9.2 mph - N/A   Overcast
11:52 PM 34.0 °F 25.0 °F 17.1 °F 50% 29.87 in 10.0 mi West 12.7 mph 18.4 mph N/A   Overcast